Weather History for Santa Fe, NM

Change the Weather History Date:

Friday, January 18, 2013

  Actual Average Record
Temperature  
Mean Temperature 32 °F -  
Max Temperature 45 °F 40 °F 57 °F (1999)
Min Temperature 18 °F 28 °F 6 °F (2001)
Degree Days  
Heating Degree Days 34    
Moisture  
Dew Point 15 °F    
Average Humidity 57    
Maximum Humidity 74    
Minimum Humidity 31    
Precipitation  
Precipitation 0.00 in - - ()
Sea Level Pressure  
Sea Level Pressure 30.33 in    
Wind  
Wind Speed 12 mph (North)    
Max Wind Speed 18 mph    
Max Gust Speed 26 mph    
Visibility 10 miles    
Events      
Averages and records for this station are not official NWS values.
T = Trace of Precipitation, MM = Missing Value Source: NWS Daily Summary

Daily Weather History Graph

Daily Weather History Graph

Search for Another Location

Airport:

Trip Planner

Search our weather history database for the weather conditions in past years. The results will help you decide how hot, cold, wet, or windy it might be!

Date:

Astronomy

Jan. 18, 2013 Rise Set
Actual Time 7:12 AM MST 5:17 PM MST
Civil Twilight 6:44 AM MST 5:45 PM MST
Nautical Twilight 6:13 AM MST 6:16 PM MST
Astronomical Twilight 5:42 AM MST 6:47 PM MST
Moon 11:09 AM MST (1/18) No Moon Set
Length of Visible Light 11h 00m
Length of Day
10h 05m
Waxing Crescent, 48% of the Moon is Illuminated
Jan 18
Waxing Crescent
Jan 18
First Quarter
Jan 26
Full
Feb 3
Last Quarter
Feb 10
New

Hourly Weather History & Observations

Time (MST) Temp. Windchill Dew Point Humidity Pressure Visibility Wind Dir Wind Speed Gust Speed Precip Events Conditions
12:53 AM 23.0 °F 13.1 °F 15.1 °F 72% 30.39 in 10.0 mi North 9.2 mph - N/A   Clear
1:53 AM 21.9 °F 10.4 °F 14.0 °F 72% 30.36 in 10.0 mi North 11.5 mph - N/A   Clear
2:53 AM 21.0 °F 8.6 °F 14.0 °F 74% 30.36 in 10.0 mi North 12.7 mph - N/A   Clear
3:53 AM 21.0 °F 7.6 °F 12.9 °F 71% 30.35 in 10.0 mi North 15.0 mph - N/A   Clear
4:53 AM 21.0 °F 7.1 °F 12.9 °F 71% 30.35 in 10.0 mi North 16.1 mph - N/A   Clear
5:53 AM 19.9 °F 6.2 °F 12.0 °F 71% 30.37 in 10.0 mi North 15.0 mph - N/A   Clear
6:53 AM 18.0 °F 2.6 °F 10.9 °F 74% 30.40 in 10.0 mi North 17.3 mph - N/A   Clear
7:53 AM 19.0 °F 5.0 °F 10.9 °F 71% 30.40 in 10.0 mi North 15.0 mph - N/A   Clear
8:53 AM 23.0 °F 8.7 °F 12.0 °F 63% 30.45 in 10.0 mi North 18.4 mph - N/A   Clear
9:53 AM 28.0 °F 16.5 °F 12.9 °F 53% 30.43 in 10.0 mi North 15.0 mph 24.2 mph N/A   Clear
10:08 AM 30.2 °F 19.3 °F 14.0 °F 51% 30.36 in 1.5 mi North 15.0 mph 26.5 mph N/A   Haze
10:23 AM 30.2 °F 20.2 °F 14.0 °F 51% 30.36 in 10.0 mi NNW 12.7 mph 24.2 mph N/A   Clear
10:53 AM 34.0 °F 24.2 °F 15.1 °F 46% 30.39 in 10.0 mi NNW 15.0 mph - N/A   Clear
11:53 AM 39.0 °F 31.4 °F 16.0 °F 39% 30.32 in 10.0 mi North 12.7 mph - N/A   Clear
12:53 PM 41.0 °F 34.7 °F 17.1 °F 38% 30.28 in 10.0 mi North 10.4 mph - N/A   Clear
1:53 PM 45.0 °F 39.7 °F 17.1 °F 33% 30.25 in 10.0 mi North 10.4 mph - N/A   Clear
2:53 PM 45.0 °F 39.3 °F 16.0 °F 31% 30.25 in 10.0 mi NNW 11.5 mph - N/A   Clear
3:53 PM 45.0 °F 39.7 °F 17.1 °F 33% 30.24 in 10.0 mi North 10.4 mph - N/A   Clear
4:53 PM 42.1 °F 37.7 °F 17.1 °F 37% 30.25 in 10.0 mi NNW 6.9 mph - N/A   Clear
5:53 PM 33.1 °F 26.1 °F 17.1 °F 52% 30.30 in 10.0 mi North 8.1 mph - N/A   Clear
6:53 PM 32.0 °F 28.7 °F 18.0 °F 56% 30.31 in 10.0 mi NNW 3.5 mph - N/A   Clear
7:53 PM 27.0 °F 23.0 °F 17.1 °F 66% 30.33 in 10.0 mi East 3.5 mph - N/A   Clear
8:53 PM 30.0 °F - 18.0 °F 61% 30.30 in 10.0 mi Calm Calm - N/A   Clear
9:53 PM 25.0 °F 19.3 °F 17.1 °F 72% 30.30 in 10.0 mi North 4.6 mph - N/A   Clear
10:53 PM 26.1 °F 17.6 °F 17.1 °F 69% 30.27 in 10.0 mi North 8.1 mph - N/A   Clear
11:53 PM 28.0 °F 16.5 °F 17.1 °F 63% 30.23 in 10.0 mi North 15.0 mph - N/A   Clear